Location: Ravensburg
(48.5621°N, 13.4088°E)
Time: 19:48:24
(UTC+02:00)

ISS - Pass Details

Date: 29 March 2017
Orbit: 399 x 409 km, 51.6° (Epoch: 29 March)

Event Time Altitude Azimuth Distance (km) Brightness Sun altitude
Rises 21:40:30 0° 248° (WSW) 2,309 0.5 -20.6°
Reaches altitude 10° 21:42:34 10° 248° (WSW) 1,454 -0.6 -20.9°
Enters shadow 21:45:05 51° 250° (WSW) 518 -3.2 -21.3°
